星链-6243 (STARLINK-6243 )

导读

STARLINK-6243是美国太空探索技术公司SpaceX星链(Starlink)星座中的卫星,于2023年6月22日发射升空。星链计划旨在构建全球卫星互联网星座,为全球偏远地区、海洋和空中等场景提供高速卫星互联网服务,STARLINK-6243属于星链大规模组网中的一颗卫星,进一步扩充了低轨卫星星座规模,助力完善星链星座全球覆盖和服务能力。

基本信息
目录编号:
57080
目录名称:
STARLINK-6243
国际标识:
2023-088AJ
轨道中心:
EARTH
卫星名称:
星链-6243
卫星全名:
星链-6243 (STARLINK-6243 )
卫星状态:
在轨 (已飞行1088 天)
发射日期:
2023-06-22 UTC
国别 :
美国 (US)
星等 :
--
轨道信息
数据来源 国际轨道数据 AOE轨道数据
星历时间 2026-06-14T21:43:54+0800
6小时前
查看轨道信息
2026-06-10T07:00:00+0800
4天前
查看轨道信息
半长轴 6861.188km 6861.146km
偏心率 0.0001262 0.0000026
轨道倾角 43.002° 43.002°
近地点辐角 271.225° 338.866°
升交点赤经 269.298° 295.356°
平近点角 88.846° 178.808°
近地点 482.185km 482.991km
远地点 483.917km 483.027km
周期 94.267分钟 94.266分钟
每日圈数 15.275796 15.275934
详细信息
固有亮度:
5
最大亮度:
2.4
卫星平台:
Starlink v1.5
覆盖范围:
全球
运营商:
太空探索技术公司
运营商所在国:
美国
制造商(研发单位):
太空探索技术公司
制造商所在国:
美国
使用方式:
暂无
卫星简介
星链(Starlink)计划是由太空探索技术公司(SpaceX)提出的一个巨型低轨卫星互联网星座项目,计划在2019年至2024年间在太空搭建由约1.2万颗卫星组成的“星链”网络,其中1584颗将部署在地球上空550千米处的近地轨道,并从2020年开始工作。该卫星仍在工作。
2D轨道图
3D轨道图
轨道高度分析图
轨道倾角分析图
轨道综合分析图
查看轨道综合分析图